DW3263 Weather Reports


Display with metric or nautical units.
time (UTC)temp
F
wind
direction
speed
MPH
gust
MPH
rain 1hr
in
rain 24hr
in
rain mn
in
humidity
%
barometer
mb
20260902043519 69 0.0 1.0 0.00 1.33 0.00 100 1015.5
20260902042519 69 90 1.0 2.0 0.00 1.33 0.00 100 1015.5
20260902041519 69 90 1.0 3.0 0.01 1.33 0.00 100 1015.4
20260902040519 69 90 1.0 3.0 0.07 1.33 0.00 100 1015.4
20260902035520 69 0.0 1.0 0.33 1.33 1.33 100 1015.6
20260902034518 69 0.0 2.0 0.63 1.33 1.33 100 1015.3
20260902033520 69 0.0 2.0 1.15 1.33 1.33 100 1015.4
20260902032520 69 0.0 2.0 1.23 1.33 1.33 100 1015.4
20260902031518 69 90 1.0 5.0 1.22 1.32 1.32 100 1015.6
20260902030520 69 90 2.0 8.0 1.18 1.26 1.26 100 1016.5
20260902025521 70 68 4.0 11.0 0.92 1.00 1.00 100 1016.5
20260902024518 70 90 3.0 10.0 0.63 0.70 0.70 100 1016.5
20260902023519 71 90 1.0 5.0 0.12 0.18 0.18 100 1015.6
20260902022521 72 90 1.0 3.0 0.04 0.10 0.10 100 1014.7
20260902021733 73 0.0 1.0 0.04 0.10 0.10 100 1014.8
20260902020542 74 90 2.0 6.0 0.02 0.08 0.08 100 1014.6
20260902015521 76 68 1.0 7.0 0.02 0.08 0.08 100 1014.6
20260902014520 77 68 4.0 13.0 0.01 0.07 0.07 100 1014.6
20260902013519 78 68 4.0 9.0 0.00 0.06 0.06 100 1014.4
20260902012518 80 68 4.0 14.0 0.00 0.06 0.06 21 1014.0
20260902011520 80 68 6.0 17.0 0.00 0.06 0.06 8 1014.0
20260902010519 79 338 1.0 3.0 0.00 0.06 0.06 100 1013.9
20260902005518 80 0.0 0.0 0.00 0.06 0.06 100 1013.5
20260902004520 80 0.0 0.0 0.00 0.06 0.06 100 1013.3
20260902003519 81 0.0 0.0 0.00 0.06 0.06 100 1013.1
20260902002519 81 0.0 0.0 0.00 0.06 0.06 100 1012.8
20260902001729 82 0.0 0.0 0.00 0.06 0.06 100 1012.3
20260902000520 82 0.0 0.0 0.00 0.06 0.06 100 1012.2
20260901235519 83 0.0 0.0 0.00 0.06 0.06 100 1012.3
20260901234518 83 0.0 0.0 0.00 0.06 0.06 7 1012.0
20260901233946 85 0.0 0.0 0.00 0.06 0.06 23 1011.9
20260901232519 86 0.0 0.0 0.00 0.06 0.06 34 1012.0
20260901231519 87 0.0 0.0 0.00 0.06 0.06 44 1012.1
20260901230518 87 0.0 1.0 0.00 0.06 0.06 47 1012.0
20260901225520 88 0.0 1.0 0.00 0.06 0.06 45 1012.1
20260901224519 89 0.0 1.0 0.00 0.06 0.06 50 1012.2
20260901223519 89 293 1.0 3.0 0.00 0.06 0.06 58 1012.1
20260901222730 90 293 1.0 2.0 0.00 0.06 0.06 54 1012.2
20260901221519 91 293 1.0 3.0 0.00 0.06 0.06 56 1012.3
20260901220521 91 0.0 0.0 0.00 0.06 0.06 57 1012.0
20260901215519 91 0.0 0.0 0.00 0.06 0.06 56 1011.9
20260901214518 90 0.0 0.0 0.00 0.06 0.06 56 1012.1
20260901213730 90 0.0 1.0 0.00 0.06 0.06 56 1012.1
20260901212519 91 293 2.0 7.0 0.00 0.06 0.06 59 1012.2
20260901211519 91 293 2.0 5.0 0.00 0.06 0.06 59 1012.1
20260901210732 91 293 2.0 5.0 0.00 0.06 0.06 59 1012.2
20260901205519 91 315 4.0 9.0 0.00 0.06 0.06 58 1012.3
20260901204519 92 293 4.0 11.0 0.00 0.06 0.06 59 1012.4
20260901203519 92 293 2.0 5.0 0.00 0.06 0.06 58 1012.4
20260901202519 92 270 3.0 8.0 0.00 0.06 0.06 58 1012.3
20260901201732 92 270 5.0 11.0 0.00 0.06 0.06 57 1012.5
20260901200519 92 293 6.0 17.0 0.00 0.06 0.06 57 1012.6
20260901195519 91 270 5.0 10.0 0.00 0.06 0.06 58 1012.6
20260901194519 90 270 4.0 7.0 0.00 0.06 0.06 59 1012.7
20260901193519 90 203 4.0 10.0 0.00 0.06 0.06 59 1012.8
20260901192519 90 203 2.0 6.0 0.00 0.06 0.06 55 1013.0
20260901191519 90 248 3.0 6.0 0.00 0.06 0.06 57 1013.0
20260901190519 90 248 3.0 7.0 0.00 0.06 0.06 57 1013.0
20260901185729 90 270 2.0 6.0 0.00 0.06 0.06 54 1013.1
20260901184730 89 270 3.0 8.0 0.00 0.06 0.06 55 1013.4
20260901183731 90 293 4.0 9.0 0.00 0.06 0.06 57 1013.3
20260901182519 89 270 4.0 9.0 0.00 0.06 0.06 52 1013.4
20260901181519 89 270 3.0 7.0 0.00 0.06 0.06 48 1013.6
20260901180729 88 270 4.0 9.0 0.00 0.06 0.06 49 1013.7
20260901175519 88 203 4.0 9.0 0.00 0.06 0.06 44 1013.7
20260901174519 87 293 4.0 7.0 0.00 0.06 0.06 44 1013.8
20260901173732 88 225 3.0 7.0 0.00 0.06 0.06 35 1013.6
20260901172541 87 203 3.0 8.0 0.00 0.06 0.06 36 1013.6
20260901171519 87 270 4.0 11.0 0.00 0.06 0.06 38 1013.7
20260901170519 86 248 3.0 6.0 0.00 0.06 0.06 25 1013.7
20260901165519 86 225 5.0 9.0 0.00 0.06 0.06 26 1013.9
20260901164519 85 225 4.0 13.0 0.00 0.06 0.06 25 1014.1
20260901163519 85 203 5.0 11.0 0.00 0.06 0.06 18 1014.1
20260901162519 85 225 4.0 9.0 0.00 0.06 0.06 100 1014.0
20260901161519 84 225 4.0 9.0 0.00 0.06 0.06 100 1014.2
20260901160519 83 225 4.0 9.0 0.00 0.06 0.06 100 1014.2
20260901155519 82 225 4.0 8.0 0.00 0.06 0.06 100 1014.1
20260901154519 81 225 4.0 7.0 0.00 0.06 0.06 100 1014.1
20260901153519 79 225 1.0 3.0 0.00 0.06 0.06 100 1014.2
20260901152519 77 225 2.0 6.0 0.00 0.06 0.06 100 1014.4
20260901151730 76 0.0 2.0 0.00 0.06 0.06 100 1014.5
20260901150519 75 0.0 2.0 0.05 0.06 0.06 100 1014.6
20260901145519 74 0.0 2.0 0.05 0.06 0.06 100 1014.6
20260901144519 74 0.0 2.0 0.05 0.06 0.06 100 1014.6
20260901143942 75 0.0 2.0 0.05 0.06 0.06 100 1014.6
20260901142519 76 0.0 1.0 0.05 0.06 0.06 100 1014.6
20260901142157 77 0.0 1.0 0.05 0.06 0.06 100 1014.9
20260901140519 78 0.0 2.0 0.00 0.01 0.01 100 1014.7
20260901135519 77 225 1.0 2.0 0.00 0.01 0.01 100 1014.7
20260901134519 77 0.0 1.0 0.00 0.02 0.01 100 1014.7
20260901133729 77 0.0 3.0 0.00 0.03 0.01 100 1014.7
20260901132519 76 0.0 3.0 0.00 0.03 0.01 100 1014.8
20260901131519 76 0.0 0.0 0.00 0.03 0.01 100 1015.0
20260901130519 76 0.0 1.0 0.00 0.03 0.01 100 1015.1
20260901125519 76 0.0 1.0 0.00 0.03 0.01 100 1015.1
20260901124519 75 225 1.0 2.0 0.00 0.03 0.01 100 1015.2
20260901123519 74 0.0 1.0 0.00 0.03 0.01 100 1015.4
20260901122519 73 0.0 1.0 0.00 0.03 0.01 100 1015.2
20260901121519 72 0.0 0.0 0.00 0.03 0.01 100 1015.2
20260901120519 71 0.0 0.0 0.00 0.03 0.01 100 1015.2
20260901115729 70 0.0 0.0 0.01 0.03 0.01 100 1015.1
20260901114729 69 0.0 0.0 0.01 0.03 0.01 100 1015.1
20260901113519 69 0.0 0.0 0.01 0.03 0.01 100 1015.3
20260901112519 69 0.0 0.0 0.01 0.03 0.01 100 1015.3
20260901111733 69 0.0 0.0 0.01 0.03 0.01 100 1015.2
20260901110519 69 0.0 0.0 0.01 0.03 0.01 100 1015.2
20260901105730 69 0.0 0.0 0.00 0.02 0.00 100 1015.3
20260901104519 69 0.0 0.0 0.00 0.02 0.00 100 1015.1
20260901103519 69 0.0 0.0 0.00 0.02 0.00 100 1015.2
20260901102945 69 0.0 0.0 0.00 0.02 0.00 100 1015.2
20260901101519 69 0.0 0.0 0.00 0.02 0.00 100 1015.1
20260901100942 69 0.0 0.0 0.00 0.02 0.00 100 1015.1
20260901095519 69 0.0 0.0 0.00 0.02 0.00 100 1015.0
20260901094520 69 0.0 0.0 0.00 0.02 0.00 100 1014.9
20260901093519 69 0.0 0.0 0.00 0.02 0.00 100 1014.9
20260901092733 69 0.0 0.0 0.00 0.02 0.00 100 1015.0
20260901091729 69 0.0 0.0 0.00 0.02 0.00 100 1015.0
20260901090519 69 0.0 0.0 0.00 0.02 0.00 100 1014.9
20260901085519 69 0.0 0.0 0.00 0.02 0.00 100 1015.1
20260901084519 69 0.0 0.0 0.00 0.02 0.00 100 1015.1
20260901083519 69 0.0 0.0 0.00 0.02 0.00 100 1015.2
20260901082519 69 0.0 0.0 0.00 0.02 0.00 100 1015.4
20260901081519 69 0.0 0.0 0.00 0.02 0.00 100 1015.5
20260901080520 69 0.0 0.0 0.00 0.02 0.00 100 1015.5
20260901075519 69 0.0 0.0 0.00 0.02 0.00 100 1015.5
20260901074520 69 0.0 0.0 0.00 0.02 0.00 100 1015.6
20260901073520 69 0.0 0.0 0.00 0.02 0.00 100 1015.7
20260901072520 69 0.0 0.0 0.00 0.02 0.00 100 1015.6
20260901071519 68 0.0 0.0 0.00 0.02 0.00 100 1015.5
20260901070731 68 0.0 0.0 0.00 0.02 0.00 100 1015.4
20260901065519 69 0.0 0.0 0.00 0.02 0.00 100 1015.6
20260901064519 69 0.0 0.0 0.00 0.02 0.00 100 1015.5
20260901063520 69 0.0 0.0 0.00 0.02 0.00 100 1015.5
20260901062943 69 0.0 0.0 0.00 0.02 0.00 100 1015.6
20260901061519 69 0.0 3.0 0.00 0.02 0.00 100 1015.7
20260901060519 69 0.0 0.0 0.00 0.02 0.00 100 1015.8
20260901055946 69 0.0 1.0 0.00 0.02 0.00 100 1016.0
20260901054519 69 0.0 0.0 0.00 0.02 0.00 100 1016.1
20260901053519 69 0.0 1.0 0.00 0.02 0.00 100 1016.2
20260901052730 70 0.0 0.0 0.00 0.02 0.00 100 1016.2
20260901051520 70 0.0 0.0 0.00 0.02 0.00 100 1016.4
20260901050732 70 0.0 0.0 0.00 0.02 0.00 100 1016.4
20260901045520 70 0.0 0.0 0.00 0.02 0.00 100 1016.4
20260901044520 70 0.0 0.0 0.00 0.02 0.00 100 1016.3